DW9727 Weather Reports


time (UTC)temp
C
wind
direction
speed
KPH
gust
KPH
rain 1hr
cm
rain 24hr
cm
rain mn
cm
humidity
%
barometer
mb
20260508035711 14 68 0.0 3.2 0.00 0.00 0.00 34 1009.4
20260508033710 14 90 0.0 3.2 0.00 0.00 0.00 35 1009.4
20260508032711 14 86 1.6 3.2 0.00 0.00 0.00 36 1009.4
20260508030710 13 51 0.0 0.0 0.00 0.00 0.00 35 1009.3
20260508025710 13 48 0.0 4.8 0.00 0.00 0.00 36 1009.1
20260508024710 13 89 1.6 3.2 0.00 0.00 0.00 36 1009.2
20260508022711 14 98 1.6 3.2 0.00 0.00 0.00 37 1008.9
20260508021710 15 64 0.0 3.2 0.00 0.00 0.00 35 1008.9
20260508020710 15 64 0.0 4.8 0.00 0.00 0.00 33 1008.5
20260508015710 15 53 1.6 4.8 0.00 0.00 0.00 32 1008.6
20260508014710 16 46 1.6 4.8 0.00 0.00 0.00 30 1008.6
20260508013711 17 45 3.2 4.8 0.00 0.00 0.00 28 1008.5
20260508012710 17 55 1.6 8.0 0.00 0.00 0.00 28 1008.4
20260508011710 18 36 1.6 4.8 0.00 0.00 0.00 27 1008.4
20260508010710 18 24 1.6 4.8 0.00 0.00 0.00 25 1008.4
20260508005710 19 13 4.8 12.9 0.00 0.00 0.00 24 1008.3
20260508004710 20 314 3.2 14.5 0.00 0.00 0.00 28 1008.3
20260508002710 20 322 3.2 12.9 0.00 0.00 0.00 26 1008.1
20260508001711 21 5 4.8 12.9 0.00 0.00 0.00 25 1008.3
20260507235710 21 268 11.3 22.5 0.00 0.00 0.00 27 1008.2
20260507234711 20 317 6.4 19.3 0.00 0.00 0.00 27 1008.1
20260507230711 21 319 14.5 22.5 0.00 0.00 0.00 27 1008.1
20260507225711 22 295 14.5 22.5 0.00 0.00 0.00 27 1008.3
20260507224710 21 321 9.7 19.3 0.00 0.00 0.00 27 1008.2
20260507223710 22 304 4.8 20.9 0.00 0.00 0.00 26 1008.1
20260507222710 22 297 4.8 19.3 0.00 0.00 0.00 28 1008.2
20260507221710 22 324 14.5 22.5 0.00 0.00 0.00 28 1008.2
20260507220710 22 321 16.1 24.1 0.00 0.00 0.00 29 1008.2
20260507215710 21 270 4.8 22.5 0.00 0.00 0.00 24 1008.3
20260507214711 22 258 11.3 25.7 0.00 0.00 0.00 27 1008.3
20260507212710 22 252 8.0 19.3 0.00 0.00 0.00 26 1008.4
20260507211710 21 261 8.0 22.5 0.00 0.00 0.00 31 1008.5
20260507210710 22 298 14.5 29.0 0.00 0.00 0.00 29 1008.6
20260507204711 21 9 1.6 24.1 0.00 0.00 0.00 26 1008.7
20260507203712 22 300 11.3 24.1 0.00 0.00 0.00 29 1008.9
20260507202710 21 5 11.3 19.3 0.00 0.00 0.00 30 1008.9
20260507201710 22 311 14.5 32.2 0.00 0.00 0.00 33 1009.1
20260507200710 21 288 12.9 33.8 0.00 0.00 0.00 31 1009.1
20260507195710 21 323 19.3 32.2 0.00 0.00 0.00 33 1009.3
20260507194710 21 334 14.5 27.4 0.00 0.00 0.00 32 1009.5
20260507193710 21 310 14.5 32.2 0.00 0.00 0.00 36 1009.5
20260507192710 21 264 6.4 40.2 0.00 0.00 0.00 36 1009.4
20260507191711 20 334 3.2 19.3 0.00 0.00 0.00 32 1009.4
20260507190711 20 262 12.9 22.5 0.00 0.00 0.00 32 1009.5
20260507185711 21 306 14.5 22.5 0.00 0.00 0.00 38 1009.6
20260507184710 20 315 8.0 24.1 0.00 0.00 0.00 30 1009.5
20260507183710 20 269 1.6 14.5 0.00 0.00 0.00 34 1009.4
20260507182711 20 314 3.2 24.1 0.00 0.00 0.00 39 1009.6
20260507181710 19 263 4.8 16.1 0.00 0.00 0.00 40 1009.6
20260507180711 19 11 4.8 14.5 0.00 0.00 0.00 46 1009.7
20260507174710 18 268 6.4 12.9 0.00 0.00 0.00 38 1009.9
20260507173711 18 349 6.4 12.9 0.00 0.00 0.00 44 1010.0
20260507171711 17 291 8.0 16.1 0.00 0.00 0.00 44 1010.2
20260507170711 17 316 4.8 14.5 0.00 0.00 0.00 48 1010.3
20260507165710 17 295 11.3 16.1 0.00 0.00 0.00 48 1010.3
20260507163710 16 246 4.8 12.9 0.00 0.00 0.00 45 1010.3
20260507162710 16 296 11.3 19.3 0.00 0.00 0.00 51 1010.4
20260507160710 16 315 11.3 16.1 0.00 0.00 0.00 49 1010.3
20260507154710 15 192 9.7 19.3 0.00 0.00 0.00 52 1010.4
20260507153710 15 224 9.7 19.3 0.00 0.00 0.00 53 1010.5
20260507152710 14 5 8.0 20.9 0.00 0.00 0.00 56 1010.6
20260507151710 14 265 9.7 25.7 0.00 0.00 0.00 54 1010.6
20260507150710 13 300 11.3 24.1 0.00 0.00 0.00 56 1010.7
20260507145710 13 240 12.9 25.7 0.00 0.00 0.00 54 1010.8
20260507144710 13 261 14.5 27.4 0.00 0.00 0.00 55 1010.8
20260507142710 13 219 19.3 33.8 0.00 0.00 0.00 52 1010.6
20260507140710 12 246 17.7 25.7 0.00 0.00 0.00 57 1010.7
20260507135710 12 228 20.9 32.2 0.00 0.00 0.00 58 1010.5
20260507133711 11 220 14.5 29.0 0.00 0.00 0.00 62 1010.8
20260507132711 10 209 20.9 35.4 0.00 0.00 0.00 62 1010.9
20260507131710 10 213 14.5 27.4 0.00 0.00 0.00 67 1010.8
20260507125710 8 229 14.5 20.9 0.00 0.00 0.00 70 1010.9
20260507124710 8 226 11.3 19.3 0.00 0.00 0.00 73 1010.9
20260507123710 7 238 9.7 19.3 0.00 0.00 0.00 74 1011.0
20260507122710 7 218 9.7 16.1 0.00 0.00 0.00 74 1011.1
20260507121711 7 216 11.3 19.3 0.00 0.00 0.00 75 1011.3
20260507115711 7 237 11.3 20.9 0.00 0.00 0.00 75 1011.3
20260507114711 7 223 12.9 20.9 0.00 0.00 0.00 75 1011.3
20260507113710 7 225 11.3 25.7 0.00 0.00 0.00 75 1011.4
20260507112710 7 219 16.1 25.7 0.00 0.00 0.00 75 1011.4
20260507111710 7 242 14.5 22.5 0.00 0.00 0.00 74 1011.4
20260507110711 7 227 17.7 22.5 0.00 0.00 0.00 74 1011.5
20260507103710 7 220 17.7 27.4 0.00 0.00 0.00 74 1011.7
20260507102710 7 219 16.1 25.7 0.00 0.00 0.00 73 1011.8
20260507101710 7 219 16.1 24.1 0.00 0.00 0.00 73 1011.9
20260507100711 7 217 19.3 29.0 0.00 0.00 0.00 73 1011.9
20260507095710 7 223 16.1 25.7 0.00 0.00 0.00 72 1012.0
20260507094711 7 212 17.7 29.0 0.00 0.00 0.00 72 1012.1
20260507093710 7 223 16.1 27.4 0.00 0.00 0.00 72 1012.1
20260507091711 7 220 16.1 32.2 0.00 0.00 0.00 72 1012.3
20260507090710 7 221 19.3 25.7 0.00 0.00 0.00 72 1012.4
20260507085710 7 211 16.1 27.4 0.00 0.00 0.00 72 1012.3
20260507084710 7 228 16.1 29.0 0.00 0.00 0.00 71 1012.5
20260507083710 7 219 17.7 27.4 0.00 0.00 0.00 70 1012.6
20260507082711 7 225 14.5 22.5 0.00 0.00 0.00 70 1012.6
20260507080711 7 215 11.3 24.1 0.00 0.00 0.00 69 1012.9
20260507075710 7 205 9.7 19.3 0.00 0.00 0.00 68 1012.9
20260507074710 7 213 9.7 14.5 0.00 0.00 0.00 68 1013.1
20260507073710 7 234 9.7 19.3 0.00 0.00 0.00 68 1013.2
20260507072710 7 205 9.7 19.3 0.00 0.00 0.00 67 1013.5
20260507071710 8 209 9.7 12.9 0.00 0.00 0.00 66 1013.6
20260507070710 8 223 8.0 16.1 0.00 0.00 0.00 64 1013.9
20260507064710 9 213 11.3 24.1 0.00 0.00 0.00 62 1014.0
20260507063711 9 233 14.5 24.1 0.00 0.00 0.00 62 1014.2
20260507062711 9 217 12.9 22.5 0.00 0.00 0.00 62 1014.1
20260507061711 9 245 12.9 22.5 0.00 0.00 0.00 62 1014.2
20260507060710 9 217 14.5 20.9 0.00 0.00 0.00 62 1014.3
20260507055710 8 212 11.3 20.9 0.00 0.00 0.00 63 1014.5
20260507054710 8 218 9.7 19.3 0.00 0.00 0.00 65 1014.5
20260507053711 7 219 4.8 11.3 0.00 0.00 0.00 64 1014.7
20260507052711 7 215 6.4 11.3 0.00 0.00 0.00 61 1014.8
20260507051711 7 217 3.2 4.8 0.00 0.00 0.00 57 1014.8
20260507044710 8 211 8.0 11.3 0.00 0.00 0.00 51 1014.9
20260507043711 9 217 4.8 9.7 0.00 0.00 0.00 48 1015.1
20260507042711 9 215 6.4 8.0 0.00 0.00 0.00 46 1015.2
20260507041710 10 194 1.6 4.8 0.00 0.00 0.00 45 1015.1